Time,TemperatureF,DewpointF,PressureIn,WindDirection,WindDirectionDegrees,WindSpeedMPH,WindSpeedGustMPH,Humidity,HourlyPrecipIn,Conditions,Clouds,dailyrainin,SoftwareType,DateUTC
2013-06-22 00:30:00,70.2,65.5,30.03,SSE,158,0.0,0.0,85,0.00,,,0.00,WUHU21623XXSP,2013-06-22 05:30:00,
2013-06-22 01:30:00,70.7,66.3,30.01,South,180,6.0,6.0,86,0.00,,,0.00,WUHU21623XXSP,2013-06-22 06:30:00,
2013-06-22 02:30:00,70.5,66.1,29.99,SW,225,0.0,0.0,86,0.00,,,0.00,WUHU21623XXSP,2013-06-22 07:30:00,
2013-06-22 03:30:00,70.5,66.1,30.00,SSW,203,3.6,3.6,86,0.00,,,0.00,WUHU21623XXSP,2013-06-22 08:30:00,
2013-06-22 04:30:00,70.7,66.6,30.00,SSW,203,4.9,4.9,87,0.00,,,0.00,WUHU21623XXSP,2013-06-22 09:30:00,
2013-06-22 05:30:00,71.1,66.7,30.01,SW,225,0.0,0.0,86,0.00,,,0.00,WUHU21623XXSP,2013-06-22 10:30:00,
2013-06-22 06:30:00,71.4,67.0,30.02,SW,225,0.0,0.0,86,0.00,,,0.00,WUHU21623XXSP,2013-06-22 11:30:00,
2013-06-22 07:27:00,73.6,68.8,30.03,North,0,57.0,57.0,85,0.00,,,0.00,WUHU21623XXSP,2013-06-22 12:27:00,
2013-06-22 07:32:00,73.8,69.0,30.04,SSW,202,0.0,57.0,85,0.00,,,1.32,WUHU21623XXSP,2013-06-22 12:32:00,
2013-06-22 07:37:00,74.1,69.3,30.04,North,349,6.5,6.9,85,0.00,,,1.32,WUHU21623XXSP,2013-06-22 12:37:00,
2013-06-22 07:42:00,74.5,69.7,30.03,West,270,85.7,85.7,85,0.00,,,1.32,WUHU21623XXSP,2013-06-22 12:42:00,
2013-06-22 16:58:00,73.0,67.9,30.01,South,180,28.4,28.4,84,0.00,,,1.32,WUHU21623XXSP,2013-06-22 21:58:00,
2013-06-22 17:03:00,73.0,67.9,30.01,South,180,1.8,85.7,84,0.00,,,1.32,WUHU21623XXSP,2013-06-22 22:03:00,
2013-06-22 17:08:00,73.0,67.9,30.01,WSW,256,14.7,85.7,84,0.00,,,1.32,WUHU21623XXSP,2013-06-22 22:08:00,
2013-06-22 17:13:00,72.9,67.7,30.01,SW,225,4.7,14.7,84,0.00,,,1.32,WUHU21623XXSP,2013-06-22 22:13:00,
2013-06-22 17:18:00,72.7,67.2,30.00,SW,225,4.9,14.7,83,0.00,,,1.32,WUHU21623XXSP,2013-06-22 22:18:00,
2013-06-22 17:23:00,72.7,67.2,30.00,SSW,202,10.3,15.0,83,0.00,,,1.32,WUHU21623XXSP,2013-06-22 22:23:00,
2013-06-22 17:28:00,72.5,67.0,29.99,SSW,202,2.9,15.0,83,0.00,,,1.32,WUHU21623XXSP,2013-06-22 22:28:00,
2013-06-22 17:33:00,72.5,67.0,29.99,South,180,6.5,67.8,83,0.00,,,1.32,WUHU21623XXSP,2013-06-22 22:33:00,
2013-06-22 17:38:00,72.3,66.5,29.98,South,180,6.9,67.8,82,0.00,,,1.32,WUHU21623XXSP,2013-06-22 22:38:00,
2013-06-22 17:43:00,72.0,66.2,29.99,SSE,157,6.0,15.4,82,0.00,,,1.32,WUHU21623XXSP,2013-06-22 22:43:00,
2013-06-22 17:48:00,71.8,65.6,29.99,NNW,337,6.9,15.4,81,0.00,,,1.32,WUHU21623XXSP,2013-06-22 22:48:00,
2013-06-22 17:53:00,71.6,65.5,29.98,NNW,337,6.9,17.0,81,0.00,,,1.32,WUHU21623XXSP,2013-06-22 22:53:00,
2013-06-22 17:58:00,71.4,65.3,29.98,NNW,337,14.1,17.0,81,0.00,,,1.32,WUHU21623XXSP,2013-06-22 22:58:00,
2013-06-22 18:03:00,71.4,65.3,29.97,NNW,337,6.9,16.8,81,0.00,,,1.32,WUHU21623XXSP,2013-06-22 23:03:00,
2013-06-22 18:10:00,71.4,65.3,29.98,South,180,3.8,16.8,81,0.00,,,1.32,WUHU21623XXSP,2013-06-22 23:10:00,